Regional Weather Roundup
Issued by NWS

Home | Current Version | Previous Version | Text Only | Print | Product List | Glossary Off
Versions: 1 2 3 4 5 6 7 8 9 10 11 12 13 14 15 16 17 18 19 20 21 22 23 24 25 26 27 28 29 30 31 32 33 34 35 36 37 38 39 40 41 42 43 44 45 46 47 48 49 50

000
ASUS43 KLSX 242059
RWRMO

WEATHER SUMMARY FOR MISSOURI
NATIONAL WEATHER SERVICE SPRINGFIELD MO
400 PM CDT FRI OCT 24 2014

NOTE: "FAIR" INDICATES FEW OR NO CLOUDS BELOW 12,000 FEET WITH NO
       SIGNIFICANT WEATHER AND/OR OBSTRUCTIONS TO VISIBILITY.
       CURRENT SKY AND/OR WEATHER CONDITIONS ARE NOT AVAILABLE FOR
       CHILLICOTHE AND FARMINGTON.

MOZ001>031-035>038-043-044-053-054-242200-
...NORTHERN AND WESTERN MISSOURI...

CITY           SKY/WX    TMP DP  RH WIND       PRES   REMARKS
KANSAS CTY INT PTSUNNY   74  64  71 SW13      29.95F
KANSAS C DTWN  PTSUNNY   77  62  59 SW13      29.94F
LEE`S SUMMIT   PTSUNNY   75  62  64 SW9G21    29.97F
ST JOSEPH      PTSUNNY   77  63  61 S15       29.91F
KIRKSVILLE     PTSUNNY   71  62  73 SW12      29.95F

$$
MOZ066>068-077>081-088>096-101>105-242200-
...SOUTHWEST MISSOURI...

CITY           SKY/WX    TMP DP  RH WIND       PRES   REMARKS
SPRINGFIELD    PTSUNNY   74  60  61 SW12      30.05S
JOPLIN         PTSUNNY   74  61  63 SW10      30.04F

$$
MOZ032>034-039>042-045>050-055>058-069>072-242200-
...CENTRAL MISSOURI...

CITY           SKY/WX    TMP DP  RH WIND       PRES   REMARKS
COLUMBIA       PTSUNNY   72  60  66 S12       30.00F
JEFFERSON CITY MOSUNNY   74  59  59 S9        29.99F
ROLLA          MOSUNNY   70  59  68 S9        30.03F
SEDALIA        MOSUNNY   74  60  61 SW14      29.99F
OSAGE BEACH    CLOUDY    73  57  56 S6        30.02S

$$
MOZ051-052-059>065-242200-
...EAST CENTRAL MISSOURI...

CITY           SKY/WX    TMP DP  RH WIND       PRES   REMARKS
ST LOUIS INTL  PTSUNNY   74  52  46 SW8       30.03F
SPIRIT OF STL  SUNNY     74  49  41 S7        30.01F
ST CHARLES     SUNNY     72  48  42 SW9       30.01F

$$
MOZ072>076-082>087-097>100-106>115-242200-
...SOUTH CENTRAL AND SOUTHEAST MISSOURI...

CITY           SKY/WX    TMP DP  RH WIND       PRES   REMARKS
CAPE GIRARDEAU SUNNY     72  52  49 NW7       30.06S
FARMINGTON     SUNNY     73  46  38 CALM      30.07F
POPLAR BLUFF   SUNNY     72  53  51 SW3       30.06F
WEST PLAINS    MOSUNNY   71  57  61 SW5       30.08F

$$



USA.gov is the U.S. government's official web portal to all federal, state and local government web resources and services.